| time (UTC) | temp C | wind direction | speed KPH | gust KPH | rain 1hr cm | rain 24hr cm | rain mn cm | humidity % | barometer mb |
| 20260508090804 | 0 | 349 | 0.0 | 0.0 | 0.00 | 0.00 | 0.00 | 97 | 1001.7 |
| 20260508090302 | 0 | 351 | 0.0 | 0.0 | 0.00 | 0.00 | 0.00 | 97 | 1001.8 |
| 20260508085757 | 0 | 344 | 0.0 | 0.0 | 0.00 | 0.00 | 0.00 | 97 | 1001.6 |
| 20260508085254 | 0 | 344 | 0.0 | 0.0 | 0.00 | 0.00 | 0.00 | 96 | 1001.7 |
| 20260508084750 | 0 | 344 | 0.0 | 0.0 | 0.00 | 0.00 | 0.00 | 96 | 1001.7 |
| 20260508084248 | 0 | 347 | 0.0 | 0.0 | 0.00 | 0.00 | 0.00 | 96 | 1001.6 |
| 20260508083745 | 0 | 347 | 0.0 | 0.0 | 0.00 | 0.00 | 0.00 | 96 | 1001.6 |
| 20260508083242 | 0 | 347 | 0.0 | 0.0 | 0.00 | 0.00 | 0.00 | 95 | 1001.5 |
| 20260508082736 | 0 | 349 | 0.0 | 0.0 | 0.00 | 0.00 | 0.00 | 95 | 1001.6 |
| 20260508082235 | 0 | 344 | 0.0 | 0.0 | 0.00 | 0.00 | 0.00 | 95 | 1001.6 |
| 20260508081732 | 0 | 341 | 0.0 | 0.0 | 0.00 | 0.00 | 0.00 | 95 | 1001.4 |
| 20260508081228 | -17 | 0.0 | 0.0 | 0.00 | 0.00 | 0.00 | 1001.6 | ||
| 20260508080725 | -17 | 0.0 | 0.0 | 0.00 | 0.00 | 0.00 | 1001.4 | ||
| 20260508080223 | -17 | 0.0 | 0.0 | 0.00 | 0.00 | 0.00 | 1001.5 | ||
| 20260508075719 | -17 | 0.0 | 0.0 | 0.00 | 0.00 | 0.00 | 1001.3 | ||
| 20260508075217 | -17 | 0.0 | 0.0 | 0.00 | 0.00 | 0.00 | 1001.3 | ||
| 20260508074714 | -17 | 0.0 | 0.0 | 0.00 | 0.00 | 0.00 | 1001.3 | ||
| 20260508074212 | -17 | 0.0 | 0.0 | 0.00 | 0.00 | 0.00 | 1001.4 | ||
| 20260508073708 | 2 | 335 | 0.0 | 0.0 | 0.00 | 0.00 | 0.00 | 88 | 1001.3 |
| 20260508073207 | 2 | 335 | 0.0 | 0.0 | 0.00 | 0.00 | 0.00 | 88 | 1001.4 |
| 20260508072702 | 2 | 335 | 0.0 | 0.0 | 0.00 | 0.00 | 0.00 | 88 | 1001.3 |
| 20260508072159 | 2 | 335 | 0.0 | 0.0 | 0.00 | 0.00 | 0.00 | 88 | 1001.5 |
| 20260508071656 | 2 | 335 | 0.0 | 0.0 | 0.00 | 0.00 | 0.00 | 88 | 1001.4 |
| 20260508071155 | 2 | 335 | 0.0 | 0.0 | 0.00 | 0.00 | 0.00 | 88 | 1001.5 |
| 20260508070652 | 2 | 335 | 0.0 | 0.0 | 0.00 | 0.00 | 0.00 | 88 | 1001.4 |
| 20260508070150 | 2 | 335 | 0.0 | 0.0 | 0.00 | 0.00 | 0.00 | 88 | 1001.2 |
| 20260508065647 | 2 | 335 | 0.0 | 0.0 | 0.00 | 0.00 | 0.00 | 88 | 1001.4 |
| 20260508065145 | 2 | 335 | 0.0 | 0.0 | 0.00 | 0.00 | 0.00 | 88 | 1001.4 |
| 20260508064642 | 2 | 335 | 0.0 | 0.0 | 0.00 | 0.00 | 0.00 | 88 | 1001.5 |
| 20260508064140 | 2 | 335 | 0.0 | 0.0 | 0.00 | 0.00 | 0.00 | 88 | 1001.4 |
| 20260508063637 | 2 | 336 | 0.0 | 0.0 | 0.00 | 0.00 | 0.00 | 87 | 1001.8 |
| 20260508063136 | 2 | 333 | 0.0 | 0.0 | 0.00 | 0.00 | 0.00 | 88 | 1001.6 |
| 20260508062633 | 2 | 324 | 0.0 | 0.0 | 0.00 | 0.00 | 0.00 | 87 | 1001.6 |
| 20260508062129 | 2 | 319 | 1.6 | 3.2 | 0.00 | 0.00 | 0.00 | 85 | 1001.6 |
| 20260508061627 | 2 | 327 | 1.6 | 1.6 | 0.00 | 0.00 | 0.00 | 87 | 1001.6 |
| 20260508061124 | 2 | 340 | 0.0 | 0.0 | 0.00 | 0.00 | 0.00 | 89 | 1001.7 |
| 20260508060620 | 2 | 337 | 0.0 | 0.0 | 0.00 | 0.00 | 0.00 | 87 | 1001.6 |
| 20260508060118 | 2 | 333 | 0.0 | 0.0 | 0.00 | 0.00 | 0.00 | 88 | 1001.6 |
| 20260508055613 | 1 | 335 | 1.6 | 1.6 | 0.00 | 0.00 | 0.00 | 89 | 1001.9 |
| 20260508055110 | 1 | 346 | 0.0 | 0.0 | 0.00 | 0.00 | 0.00 | 90 | 1001.8 |
| 20260508054607 | 1 | 305 | 0.0 | 0.0 | 0.00 | 0.00 | 0.00 | 92 | 1001.7 |
| 20260508054104 | 1 | 305 | 0.0 | 0.0 | 0.00 | 0.00 | 0.00 | 92 | 1001.8 |
| 20260508053601 | 1 | 344 | 0.0 | 3.2 | 0.00 | 0.00 | 0.00 | 92 | 1001.8 |
| 20260508053059 | 0 | 335 | 0.0 | 0.0 | 0.00 | 0.00 | 0.00 | 95 | 1001.9 |
| 20260508052556 | 0 | 340 | 0.0 | 0.0 | 0.00 | 0.00 | 0.00 | 95 | 1001.8 |
| 20260508052053 | 0 | 352 | 0.0 | 0.0 | 0.00 | 0.00 | 0.00 | 96 | 1001.9 |
| 20260508051549 | 0 | 345 | 0.0 | 0.0 | 0.00 | 0.00 | 0.00 | 96 | 1002.0 |
| 20260508051045 | 0 | 342 | 0.0 | 0.0 | 0.00 | 0.00 | 0.00 | 96 | 1002.0 |
| 20260508050541 | 0 | 347 | 0.0 | 0.0 | 0.00 | 0.00 | 0.00 | 95 | 1001.9 |
| 20260508050038 | 0 | 347 | 0.0 | 0.0 | 0.00 | 0.00 | 0.00 | 95 | 1002.1 |
| 20260508045534 | 0 | 347 | 0.0 | 0.0 | 0.00 | 0.00 | 0.00 | 94 | 1002.0 |
| 20260508045032 | 0 | 20 | 0.0 | 0.0 | 0.00 | 0.00 | 0.00 | 94 | 1002.1 |
| 20260508044529 | 1 | 354 | 0.0 | 0.0 | 0.00 | 0.00 | 0.00 | 92 | 1002.2 |
| 20260508044025 | 1 | 347 | 0.0 | 0.0 | 0.00 | 0.00 | 0.00 | 92 | 1002.1 |
| 20260508043522 | 1 | 351 | 0.0 | 0.0 | 0.00 | 0.00 | 0.00 | 91 | 1002.3 |
| 20260508043019 | 1 | 349 | 0.0 | 0.0 | 0.00 | 0.00 | 0.00 | 93 | 1002.4 |
| 20260508042516 | 1 | 346 | 0.0 | 0.0 | 0.00 | 0.00 | 0.00 | 93 | 1002.2 |
| 20260508042014 | 1 | 344 | 0.0 | 0.0 | 0.00 | 0.00 | 0.00 | 94 | 1002.3 |
| 20260508041510 | 0 | 344 | 0.0 | 0.0 | 0.00 | 0.00 | 0.00 | 94 | 1002.4 |
| 20260508041006 | 0 | 344 | 0.0 | 0.0 | 0.00 | 0.00 | 0.00 | 94 | 1002.3 |
| 20260508040504 | 1 | 350 | 0.0 | 0.0 | 0.00 | 0.00 | 0.00 | 92 | 1002.5 |
| 20260508040001 | 1 | 350 | 0.0 | 0.0 | 0.00 | 0.43 | 0.43 | 91 | 1002.6 |
| 20260508035458 | 1 | 351 | 0.0 | 0.0 | 0.00 | 0.43 | 0.43 | 91 | 1002.8 |
| 20260508034954 | 2 | 352 | 0.0 | 0.0 | 0.00 | 0.43 | 0.43 | 90 | 1002.4 |
| 20260508034452 | 2 | 352 | 0.0 | 0.0 | 0.00 | 0.43 | 0.43 | 90 | 1002.7 |
| 20260508033948 | 2 | 337 | 0.0 | 0.0 | 0.00 | 0.43 | 0.43 | 89 | 1002.6 |
| 20260508033447 | 2 | 339 | 0.0 | 0.0 | 0.00 | 0.43 | 0.43 | 90 | 1002.8 |
| 20260508032944 | 1 | 330 | 0.0 | 0.0 | 0.00 | 0.43 | 0.43 | 90 | 1002.7 |
| 20260508032441 | 1 | 27 | 0.0 | 0.0 | 0.00 | 0.43 | 0.43 | 90 | 1002.7 |
| 20260508031938 | 2 | 354 | 0.0 | 0.0 | 0.00 | 0.43 | 0.43 | 90 | 1002.6 |
| 20260508031435 | 2 | 354 | 0.0 | 0.0 | 0.00 | 0.43 | 0.43 | 88 | 1002.7 |
| 20260508030931 | 2 | 354 | 0.0 | 0.0 | 0.00 | 0.43 | 0.43 | 87 | 1002.5 |
| 20260508030428 | 2 | 348 | 0.0 | 0.0 | 0.00 | 0.43 | 0.43 | 83 | 1002.4 |
| 20260508025925 | 2 | 348 | 0.0 | 0.0 | 0.00 | 0.43 | 0.43 | 83 | 1002.1 |
| 20260508025422 | 2 | 353 | 0.0 | 0.0 | 0.00 | 0.43 | 0.43 | 83 | 1002.4 |
| 20260508024919 | 3 | 353 | 0.0 | 0.0 | 0.00 | 0.43 | 0.43 | 84 | 1002.3 |
| 20260508024416 | 2 | 353 | 0.0 | 0.0 | 0.00 | 0.43 | 0.43 | 81 | 1002.3 |
| 20260508023912 | 3 | 353 | 0.0 | 0.0 | 0.00 | 0.43 | 0.43 | 81 | 1002.4 |
| 20260508023409 | 3 | 353 | 0.0 | 0.0 | 0.00 | 0.43 | 0.43 | 80 | 1002.2 |
| 20260508022906 | 3 | 353 | 0.0 | 0.0 | 0.00 | 0.43 | 0.43 | 83 | 1002.2 |
| 20260508022401 | 3 | 359 | 0.0 | 0.0 | 0.00 | 0.43 | 0.43 | 80 | 1002.3 |
| 20260508021858 | 4 | 337 | 0.0 | 0.0 | 0.00 | 0.43 | 0.43 | 76 | 1002.5 |
| 20260508021354 | 4 | 333 | 0.0 | 0.0 | 0.00 | 0.43 | 0.43 | 76 | 1002.1 |
| 20260508020851 | 3 | 330 | 0.0 | 0.0 | 0.00 | 0.43 | 0.43 | 82 | 1002.2 |
| 20260508020349 | 5 | 349 | 0.0 | 0.0 | 0.00 | 0.43 | 0.43 | 76 | 1002.2 |
| 20260508015845 | 5 | 349 | 0.0 | 0.0 | 0.00 | 0.43 | 0.43 | 76 | 1002.3 |
| 20260508015343 | 5 | 349 | 0.0 | 0.0 | 0.00 | 0.43 | 0.43 | 76 | 1002.4 |
| 20260508014839 | 5 | 349 | 0.0 | 0.0 | 0.00 | 0.43 | 0.43 | 76 | 1002.3 |
| 20260508014337 | 6 | 331 | 0.0 | 0.0 | 0.00 | 0.43 | 0.43 | 69 | 1002.3 |
| 20260508013831 | 6 | 331 | 0.0 | 0.0 | 0.00 | 0.43 | 0.43 | 69 | 1002.4 |
| 20260508013328 | 6 | 348 | 0.0 | 0.0 | 0.00 | 0.43 | 0.43 | 71 | 1002.4 |
| 20260508012826 | 6 | 329 | 0.0 | 0.0 | 0.00 | 0.43 | 0.43 | 68 | 1002.5 |
| 20260508012323 | 6 | 326 | 0.0 | 3.2 | 0.00 | 0.43 | 0.43 | 67 | 1002.3 |
| 20260508011821 | 7 | 333 | 0.0 | 3.2 | 0.00 | 0.43 | 0.43 | 62 | 1002.6 |
| 20260508011318 | 7 | 292 | 0.0 | 0.0 | 0.00 | 0.43 | 0.43 | 63 | 1002.4 |
| 20260508010815 | 9 | 349 | 3.2 | 6.4 | 0.00 | 0.43 | 0.43 | 54 | 1002.4 |
| 20260508010313 | 9 | 349 | 3.2 | 6.4 | 0.00 | 0.43 | 0.43 | 54 | 1002.4 |
| 20260508005809 | 9 | 349 | 3.2 | 6.4 | 0.00 | 0.43 | 0.43 | 54 | 1002.2 |
| 20260508005306 | 9 | 349 | 3.2 | 6.4 | 0.00 | 0.43 | 0.43 | 54 | 1002.4 |
| 20260508004802 | 9 | 349 | 3.2 | 6.4 | 0.00 | 0.43 | 0.43 | 54 | 1002.2 |
| 20260508004259 | 9 | 349 | 3.2 | 6.4 | 0.00 | 0.43 | 0.43 | 54 | 1002.3 |
| 20260508003755 | 9 | 349 | 3.2 | 6.4 | 0.00 | 0.43 | 0.43 | 54 | 1002.2 |
| 20260508003253 | 9 | 349 | 3.2 | 6.4 | 0.00 | 0.43 | 0.43 | 54 | 1002.2 |
| 20260508002749 | 10 | 337 | 0.0 | 0.0 | 0.00 | 0.43 | 0.43 | 56 | 1002.2 |
| 20260508002246 | 10 | 329 | 1.6 | 1.6 | 0.00 | 0.43 | 0.43 | 53 | 1002.1 |
| 20260508001742 | 10 | 329 | 1.6 | 1.6 | 0.00 | 0.43 | 0.43 | 53 | 1002.3 |
| 20260508001238 | 10 | 329 | 1.6 | 1.6 | 0.00 | 0.43 | 0.43 | 53 | 1002.0 |
| 20260508000734 | 10 | 357 | 1.6 | 1.6 | 0.00 | 0.43 | 0.43 | 55 | 1001.9 |
| 20260508000234 | 10 | 357 | 1.6 | 1.6 | 0.00 | 0.43 | 0.43 | 55 | 1001.6 |
| 20260507235728 | 10 | 357 | 1.6 | 1.6 | 0.00 | 0.43 | 0.43 | 55 | 1001.5 |
| 20260507235225 | 11 | 345 | 6.4 | 9.7 | 0.00 | 0.43 | 0.43 | 54 | 1001.4 |
| 20260507234722 | 11 | 351 | 1.6 | 1.6 | 0.00 | 0.43 | 0.43 | 54 | 1001.4 |
| 20260507234219 | 11 | 346 | 3.2 | 4.8 | 0.00 | 0.43 | 0.43 | 53 | 1001.1 |
| 20260507233715 | 11 | 1 | 6.4 | 9.7 | 0.00 | 0.43 | 0.43 | 50 | 1001.1 |
| 20260507233214 | 12 | 107 | 8.0 | 9.7 | 0.00 | 0.43 | 0.43 | 51 | 1000.8 |
| 20260507232710 | 12 | 288 | 3.2 | 6.4 | 0.00 | 0.43 | 0.43 | 58 | 1000.9 |
| 20260507232208 | 12 | 12 | 1.6 | 11.3 | 0.00 | 0.43 | 0.43 | 54 | 1000.8 |
| 20260507231704 | 12 | 25 | 3.2 | 4.8 | 0.00 | 0.43 | 0.43 | 55 | 1000.5 |
| 20260507231201 | 12 | 3 | 6.4 | 6.4 | 0.00 | 0.43 | 0.43 | 57 | 1000.2 |
| 20260507230657 | 12 | 340 | 4.8 | 4.8 | 0.00 | 0.43 | 0.43 | 58 | 1000.1 |
| 20260507230155 | 12 | 288 | 8.0 | 12.9 | 0.00 | 0.43 | 0.43 | 58 | 1000.1 |
| 20260507225654 | 13 | 332 | 3.2 | 3.2 | 0.00 | 0.43 | 0.43 | 60 | 999.9 |
| 20260507225151 | 13 | 356 | 1.6 | 3.2 | 0.00 | 0.43 | 0.43 | 59 | 999.9 |
| 20260507224647 | 13 | 0 | 3.2 | 9.7 | 0.00 | 0.43 | 0.43 | 61 | 999.5 |
| 20260507224144 | 13 | 9 | 3.2 | 4.8 | 0.00 | 0.43 | 0.43 | 66 | 999.4 |
| 20260507223640 | 14 | 305 | 1.6 | 3.2 | 0.00 | 0.43 | 0.43 | 65 | 999.3 |
| 20260507223137 | 14 | 313 | 1.6 | 1.6 | 0.00 | 0.43 | 0.43 | 65 | 999.2 |
| 20260507222634 | 15 | 11 | 9.7 | 11.3 | 0.00 | 0.43 | 0.43 | 64 | 999.4 |
| 20260507222130 | 15 | 255 | 1.6 | 1.6 | 0.00 | 0.43 | 0.43 | 60 | 999.2 |
| 20260507221626 | 15 | 3 | 3.2 | 3.2 | 0.00 | 0.43 | 0.43 | 59 | 999.1 |
| 20260507221123 | 15 | 3 | 3.2 | 3.2 | 0.00 | 0.43 | 0.43 | 59 | 999.1 |
| 20260507220620 | 15 | 3 | 3.2 | 3.2 | 0.00 | 0.43 | 0.43 | 59 | 999.0 |
| 20260507220118 | 15 | 3 | 3.2 | 3.2 | 0.00 | 0.43 | 0.43 | 59 | 998.9 |
| 20260507215613 | 15 | 354 | 1.6 | 1.6 | 0.00 | 0.43 | 0.43 | 52 | 999.0 |
| 20260507215112 | 15 | 342 | 0.0 | 0.0 | 0.00 | 0.43 | 0.43 | 56 | 999.1 |
| 20260507214609 | 16 | 329 | 1.6 | 1.6 | 0.00 | 0.43 | 0.43 | 52 | 998.9 |
| 20260507214104 | 15 | 329 | 3.2 | 4.8 | 0.00 | 0.43 | 0.43 | 54 | 999.1 |
| 20260507213601 | 15 | 329 | 3.2 | 4.8 | 0.00 | 0.43 | 0.43 | 54 | 999.0 |
| 20260507213058 | 15 | 329 | 3.2 | 4.8 | 0.00 | 0.43 | 0.43 | 54 | 999.2 |
| 20260507212554 | 15 | 207 | 3.2 | 4.8 | 0.00 | 0.43 | 0.43 | 56 | 998.9 |
| 20260507212051 | 16 | 253 | 3.2 | 4.8 | 0.00 | 0.43 | 0.43 | 55 | 998.9 |
| 20260507211548 | 15 | 286 | 1.6 | 6.4 | 0.00 | 0.43 | 0.43 | 58 | 998.9 |
| 20260507211044 | 15 | 293 | 1.6 | 1.6 | 0.00 | 0.43 | 0.43 | 61 | 998.8 |
| 20260507210541 | 15 | 294 | 3.2 | 4.8 | 0.00 | 0.43 | 0.43 | 58 | 998.7 |
| 20260507210038 | 15 | 114 | 3.2 | 4.8 | 0.00 | 0.43 | 0.43 | 59 | 998.9 |
| 20260507205535 | 15 | 295 | 1.6 | 1.6 | 0.00 | 0.43 | 0.43 | 57 | 998.8 |
| 20260507205031 | 15 | 340 | 1.6 | 3.2 | 0.00 | 0.43 | 0.43 | 55 | 998.6 |
| 20260507204527 | 15 | 300 | 1.6 | 1.6 | 0.00 | 0.43 | 0.43 | 57 | 998.5 |
| 20260507204025 | 15 | 267 | 6.4 | 11.3 | 0.00 | 0.43 | 0.43 | 52 | 998.5 |
| 20260507203523 | 15 | 322 | 0.0 | 3.2 | 0.00 | 0.43 | 0.43 | 60 | 998.7 |
| 20260507203020 | 15 | 340 | 0.0 | 4.8 | 0.00 | 0.43 | 0.43 | 58 | 998.7 |
| 20260507202515 | 15 | 250 | 1.6 | 3.2 | 0.00 | 0.43 | 0.43 | 60 | 998.5 |
| 20260507202012 | 15 | 19 | 0.0 | 1.6 | 0.00 | 0.43 | 0.43 | 62 | 998.6 |
| 20260507201508 | 15 | 316 | 1.6 | 1.6 | 0.00 | 0.43 | 0.43 | 61 | 998.4 |
| 20260507201004 | 15 | 315 | 1.6 | 6.4 | 0.00 | 0.43 | 0.43 | 62 | 998.6 |
| 20260507200459 | 15 | 265 | 6.4 | 6.4 | 0.00 | 0.43 | 0.43 | 61 | 998.5 |
| 20260507195955 | 15 | 345 | 0.0 | 3.2 | 0.00 | 0.43 | 0.43 | 60 | 998.5 |
| 20260507195453 | 15 | 358 | 0.0 | 3.2 | 0.00 | 0.43 | 0.43 | 60 | 998.6 |
| 20260507194950 | 15 | 359 | 1.6 | 4.8 | 0.00 | 0.43 | 0.43 | 59 | 998.4 |
| 20260507194447 | 15 | 285 | 1.6 | 6.4 | 0.00 | 0.43 | 0.43 | 59 | 998.5 |
| 20260507193942 | 15 | 1 | 0.0 | 0.0 | 0.00 | 0.43 | 0.43 | 58 | 998.6 |
| 20260507193440 | 15 | 19 | 1.6 | 6.4 | 0.00 | 0.43 | 0.43 | 57 | 998.6 |
| 20260507192937 | 17 | 8 | 3.2 | 3.2 | 0.00 | 0.43 | 0.43 | 51 | 998.6 |
| 20260507192433 | 17 | 8 | 3.2 | 3.2 | 0.00 | 0.43 | 0.43 | 51 | 998.5 |
| 20260507191930 | 16 | 55 | 1.6 | 1.6 | 0.00 | 0.43 | 0.43 | 50 | 998.5 |
| 20260507191426 | 17 | 354 | 0.0 | 0.0 | 0.00 | 0.43 | 0.43 | 50 | 998.6 |
| 20260507190922 | 17 | 17 | 0.0 | 0.0 | 0.00 | 0.43 | 0.43 | 53 | 998.4 |
| 20260507190420 | 17 | 17 | 0.0 | 0.0 | 0.00 | 0.43 | 0.43 | 53 | 998.4 |
| 20260507185919 | 16 | 218 | 9.7 | 12.9 | 0.00 | 0.43 | 0.43 | 48 | 998.5 |
| 20260507185416 | 16 | 218 | 9.7 | 12.9 | 0.00 | 0.43 | 0.43 | 48 | 998.5 |
| 20260507184913 | 16 | 216 | 3.2 | 11.3 | 0.00 | 0.43 | 0.43 | 49 | 998.8 |
| 20260507184410 | 16 | 322 | 1.6 | 1.6 | 0.00 | 0.43 | 0.43 | 49 | 998.6 |
| 20260507183908 | 16 | 21 | 3.2 | 3.2 | 0.00 | 0.43 | 0.43 | 52 | 998.8 |
| 20260507183405 | 17 | 349 | 3.2 | 4.8 | 0.00 | 0.43 | 0.43 | 46 | 998.7 |
| 20260507182902 | 17 | 18 | 1.6 | 1.6 | 0.00 | 0.43 | 0.43 | 50 | 998.8 |
| 20260507182357 | 16 | 349 | 4.8 | 4.8 | 0.00 | 0.43 | 0.43 | 48 | 998.9 |
| 20260507181854 | 17 | 357 | 1.6 | 1.6 | 0.00 | 0.43 | 0.43 | 46 | 999.0 |
| 20260507181350 | 17 | 322 | 1.6 | 3.2 | 0.00 | 0.43 | 0.43 | 50 | 999.2 |
| 20260507180847 | 17 | 13 | 3.2 | 6.4 | 0.00 | 0.43 | 0.43 | 46 | 998.9 |
| 20260507180344 | 16 | 271 | 4.8 | 4.8 | 0.00 | 0.43 | 0.43 | 50 | 999.1 |
| 20260507175840 | 16 | 43 | 1.6 | 3.2 | 0.00 | 0.43 | 0.43 | 52 | 999.1 |
| 20260507175337 | 17 | 302 | 3.2 | 3.2 | 0.00 | 0.43 | 0.43 | 49 | 999.1 |
| 20260507174834 | 17 | 302 | 3.2 | 3.2 | 0.00 | 0.43 | 0.43 | 49 | 999.3 |
| 20260507174331 | 17 | 302 | 3.2 | 3.2 | 0.00 | 0.43 | 0.43 | 49 | 999.2 |
| 20260507173829 | 17 | 302 | 3.2 | 3.2 | 0.00 | 0.43 | 0.43 | 49 | 999.4 |
| 20260507173326 | 17 | 302 | 3.2 | 3.2 | 0.00 | 0.43 | 0.43 | 49 | 999.3 |
| 20260507172822 | 17 | 74 | 1.6 | 3.2 | 0.00 | 0.43 | 0.43 | 48 | 999.5 |
| 20260507172319 | 17 | 74 | 1.6 | 3.2 | 0.00 | 0.43 | 0.43 | 48 | 999.4 |
| 20260507171815 | 17 | 265 | 4.8 | 9.7 | 0.00 | 0.43 | 0.43 | 52 | 999.3 |
| 20260507171312 | 17 | 265 | 4.8 | 9.7 | 0.00 | 0.43 | 0.43 | 52 | 999.3 |
| 20260507170809 | 17 | 265 | 4.8 | 9.7 | 0.00 | 0.43 | 0.43 | 52 | 999.3 |
| 20260507170305 | 17 | 277 | 3.2 | 6.4 | 0.00 | 0.43 | 0.43 | 54 | 999.5 |
| 20260507165801 | 17 | 153 | 3.2 | 6.4 | 0.00 | 0.43 | 0.43 | 57 | 999.6 |
| 20260507165257 | 17 | 153 | 3.2 | 6.4 | 0.00 | 0.43 | 0.43 | 57 | 999.7 |
| 20260507164754 | 16 | 258 | 1.6 | 3.2 | 0.00 | 0.43 | 0.43 | 56 | 999.8 |
| 20260507164251 | 16 | 275 | 6.4 | 6.4 | 0.00 | 0.43 | 0.43 | 54 | 1000.0 |
| 20260507163748 | 16 | 309 | 3.2 | 4.8 | 0.00 | 0.43 | 0.43 | 61 | 999.8 |
| 20260507163246 | 15 | 249 | 6.4 | 6.4 | 0.00 | 0.43 | 0.43 | 54 | 1000.0 |
| 20260507162741 | 15 | 289 | 3.2 | 4.8 | 0.00 | 0.43 | 0.43 | 55 | 1000.2 |
| 20260507162237 | 16 | 329 | 3.2 | 4.8 | 0.00 | 0.43 | 0.43 | 53 | 1000.3 |
| 20260507161735 | 16 | 329 | 3.2 | 9.7 | 0.00 | 0.43 | 0.43 | 54 | 1000.2 |
| 20260507161231 | 16 | 175 | 6.4 | 11.3 | 0.00 | 0.43 | 0.43 | 54 | 1000.2 |
| 20260507160727 | 15 | 9 | 6.4 | 6.4 | 0.00 | 0.43 | 0.43 | 58 | 1000.4 |
| 20260507160223 | 15 | 324 | 0.0 | 1.6 | 0.00 | 0.43 | 0.43 | 57 | 1000.3 |
| 20260507155720 | 15 | 52 | 1.6 | 3.2 | 0.00 | 0.43 | 0.43 | 60 | 1000.1 |
| 20260507155216 | 15 | 52 | 1.6 | 3.2 | 0.00 | 0.43 | 0.43 | 60 | 1000.5 |
| 20260507154712 | 15 | 52 | 1.6 | 3.2 | 0.00 | 0.43 | 0.43 | 60 | 1000.3 |
| 20260507154210 | 15 | 52 | 1.6 | 3.2 | 0.00 | 0.43 | 0.43 | 60 | 1000.3 |
| 20260507153707 | 15 | 52 | 1.6 | 3.2 | 0.00 | 0.43 | 0.43 | 60 | 1000.4 |
| 20260507153203 | 15 | 52 | 1.6 | 3.2 | 0.00 | 0.43 | 0.43 | 60 | 1000.6 |
| 20260507152659 | 15 | 52 | 1.6 | 3.2 | 0.00 | 0.43 | 0.43 | 60 | 1000.4 |
| 20260507152155 | 15 | 3 | 0.0 | 1.6 | 0.00 | 0.43 | 0.43 | 63 | 1000.5 |
| 20260507151652 | 13 | 58 | 4.8 | 4.8 | 0.00 | 0.43 | 0.43 | 65 | 1000.6 |
| 20260507151148 | 13 | 58 | 4.8 | 4.8 | 0.00 | 0.43 | 0.43 | 65 | 1000.8 |
| 20260507150646 | 13 | 58 | 4.8 | 4.8 | 0.00 | 0.43 | 0.43 | 65 | 1000.8 |
| 20260507150142 | 13 | 58 | 4.8 | 4.8 | 0.00 | 0.43 | 0.43 | 65 | 1000.9 |
| 20260507145637 | 14 | 189 | 3.2 | 4.8 | 0.00 | 0.43 | 0.43 | 61 | 1001.0 |
| 20260507145135 | 14 | 189 | 3.2 | 4.8 | 0.00 | 0.43 | 0.43 | 61 | 1001.0 |
| 20260507144631 | 14 | 309 | 1.6 | 9.7 | 0.00 | 0.43 | 0.43 | 64 | 1001.1 |
| 20260507144130 | 14 | 322 | 0.0 | 1.6 | 0.00 | 0.43 | 0.43 | 69 | 1001.2 |
| 20260507143626 | 14 | 322 | 0.0 | 1.6 | 0.00 | 0.43 | 0.43 | 69 | 1001.3 |
| 20260507143123 | 14 | 322 | 0.0 | 1.6 | 0.00 | 0.43 | 0.43 | 69 | 1001.2 |
| 20260507142619 | 14 | 319 | 3.2 | 3.2 | 0.00 | 0.43 | 0.43 | 67 | 1001.4 |
| 20260507142116 | 14 | 356 | 0.0 | 1.6 | 0.00 | 0.43 | 0.43 | 69 | 1001.4 |
| 20260507141612 | 13 | 338 | 0.0 | 1.6 | 0.00 | 0.43 | 0.43 | 72 | 1001.3 |
| 20260507141109 | 12 | 37 | 1.6 | 3.2 | 0.00 | 0.43 | 0.43 | 70 | 1001.4 |
| 20260507140605 | 12 | 37 | 1.6 | 3.2 | 0.00 | 0.43 | 0.43 | 70 | 1001.2 |
| 20260507135600 | 12 | 72 | 1.6 | 3.2 | 0.00 | 0.43 | 0.43 | 72 | 1001.3 |
| 20260507135057 | 12 | 72 | 1.6 | 3.2 | 0.00 | 0.43 | 0.43 | 72 | 1001.4 |
| 20260507134553 | 13 | 315 | 3.2 | 3.2 | 0.00 | 0.43 | 0.43 | 74 | 1001.5 |
| 20260507134049 | 12 | 12 | 3.2 | 3.2 | 0.00 | 0.43 | 0.43 | 72 | 1001.5 |
| 20260507133546 | 12 | 334 | 1.6 | 4.8 | 0.00 | 0.43 | 0.43 | 73 | 1001.5 |
| 20260507133044 | 12 | 314 | 3.2 | 3.2 | 0.00 | 0.43 | 0.43 | 76 | 1001.4 |
| 20260507132540 | 12 | 289 | 3.2 | 3.2 | 0.00 | 0.43 | 0.43 | 79 | 1001.6 |
| 20260507132036 | 11 | 289 | 4.8 | 4.8 | 0.00 | 0.43 | 0.43 | 79 | 1001.6 |
| 20260507131533 | 11 | 354 | 3.2 | 4.8 | 0.00 | 0.43 | 0.43 | 76 | 1001.6 |
| 20260507131031 | 11 | 40 | 4.8 | 6.4 | 0.00 | 0.43 | 0.43 | 77 | 1001.6 |
| 20260507130527 | 11 | 318 | 1.6 | 1.6 | 0.00 | 0.43 | 0.43 | 82 | 1001.5 |
| 20260507130026 | 11 | 255 | 8.0 | 11.3 | 0.00 | 0.43 | 0.43 | 81 | 1001.8 |
| 20260507125524 | 11 | 347 | 4.8 | 6.4 | 0.00 | 0.43 | 0.43 | 79 | 1001.6 |
| 20260507125021 | 11 | 15 | 1.6 | 6.4 | 0.00 | 0.43 | 0.43 | 81 | 1001.6 |
| 20260507124517 | 11 | 323 | 3.2 | 4.8 | 0.00 | 0.43 | 0.43 | 80 | 1001.5 |
| 20260507124016 | 11 | 13 | 1.6 | 3.2 | 0.00 | 0.43 | 0.43 | 80 | 1001.7 |
| 20260507123513 | 10 | 7 | 3.2 | 9.7 | 0.00 | 0.43 | 0.43 | 82 | 1001.5 |
| 20260507123010 | 10 | 24 | 3.2 | 14.5 | 0.00 | 0.43 | 0.43 | 82 | 1001.7 |
| 20260507122504 | 10 | 266 | 3.2 | 6.4 | 0.00 | 0.43 | 0.43 | 82 | 1001.9 |
| 20260507122001 | 10 | 268 | 4.8 | 4.8 | 0.00 | 0.43 | 0.43 | 82 | 1001.9 |
| 20260507121456 | 10 | 223 | 3.2 | 6.4 | 0.00 | 0.43 | 0.43 | 83 | 1001.8 |
| 20260507120953 | 10 | 15 | 1.6 | 6.4 | 0.00 | 0.43 | 0.43 | 88 | 1001.8 |
| 20260507120449 | 10 | 356 | 0.0 | 4.8 | 0.00 | 0.43 | 0.43 | 83 | 1002.0 |
| 20260507115946 | 10 | 320 | 6.4 | 11.3 | 0.00 | 0.43 | 0.43 | 85 | 1002.1 |
| 20260507115442 | 10 | 340 | 0.0 | 3.2 | 0.00 | 0.43 | 0.43 | 85 | 1001.7 |
| 20260507114938 | 10 | 30 | 3.2 | 4.8 | 0.00 | 0.43 | 0.43 | 89 | 1001.8 |
| 20260507114434 | 9 | 3 | 3.2 | 3.2 | 0.00 | 0.43 | 0.43 | 89 | 1002.3 |
| 20260507113932 | 10 | 24 | 1.6 | 1.6 | 0.00 | 0.43 | 0.43 | 87 | 1002.4 |
| 20260507113429 | 9 | 319 | 0.0 | 14.5 | 0.00 | 0.43 | 0.43 | 88 | 1002.2 |
| 20260507112926 | 9 | 339 | 1.6 | 11.3 | 0.00 | 0.43 | 0.43 | 89 | 1001.9 |
| 20260507112424 | 8 | 24 | 1.6 | 3.2 | 0.00 | 0.43 | 0.43 | 91 | 1002.2 |
| 20260507111920 | 8 | 335 | 0.0 | 1.6 | 0.00 | 0.43 | 0.43 | 94 | 1002.2 |
| 20260507111418 | 8 | 306 | 1.6 | 4.8 | 0.00 | 0.43 | 0.43 | 94 | 1001.8 |
| 20260507110914 | 8 | 297 | 1.6 | 3.2 | 0.00 | 0.43 | 0.43 | 94 | 1001.9 |
| 20260507110410 | 8 | 325 | 0.0 | 4.8 | 0.00 | 0.43 | 0.43 | 95 | 1001.7 |
| 20260507105907 | 8 | 350 | 0.0 | 1.6 | 0.00 | 0.43 | 0.43 | 96 | 1001.6 |
| 20260507105403 | 8 | 173 | 3.2 | 4.8 | 0.00 | 0.43 | 0.43 | 96 | 1001.8 |
| 20260507104900 | 8 | 308 | 1.6 | 3.2 | 0.00 | 0.43 | 0.43 | 96 | 1001.9 |
| 20260507104357 | 7 | 342 | 0.0 | 3.2 | 0.00 | 0.43 | 0.43 | 96 | 1001.4 |
| 20260507103853 | 8 | 340 | 0.0 | 1.6 | 0.00 | 0.43 | 0.43 | 98 | 1001.3 |
| 20260507103350 | 7 | 334 | 0.0 | 0.0 | 0.00 | 0.43 | 0.43 | 98 | 1001.6 |
| 20260507102846 | 7 | 3 | 0.0 | 1.6 | 0.00 | 0.43 | 0.43 | 99 | 1001.7 |
| 20260507102343 | 7 | 7 | 1.6 | 3.2 | 0.00 | 0.43 | 0.43 | 99 | 1001.4 |
| 20260507101839 | 6 | 340 | 0.0 | 1.6 | 0.00 | 0.43 | 0.43 | 99 | 1001.4 |
| 20260507101333 | 6 | 337 | 1.6 | 3.2 | 0.00 | 0.43 | 0.43 | 99 | 1001.4 |
| 20260507100831 | 6 | 339 | 0.0 | 0.0 | 0.00 | 0.43 | 0.43 | 99 | 1001.2 |
| 20260507100329 | 6 | 342 | 0.0 | 0.0 | 0.00 | 0.43 | 0.43 | 99 | 1001.5 |
| 20260507095827 | 6 | 333 | 0.0 | 0.0 | 0.00 | 0.43 | 0.43 | 99 | 1001.6 |
| 20260507095323 | 6 | 349 | 0.0 | 1.6 | 0.00 | 0.43 | 0.43 | 99 | 1001.7 |
| 20260507094820 | 6 | 352 | 0.0 | 0.0 | 0.00 | 0.43 | 0.43 | 99 | 1001.5 |
| 20260507094316 | 6 | 347 | 0.0 | 0.0 | 0.00 | 0.43 | 0.43 | 99 | 1001.5 |
| 20260507093813 | 6 | 313 | 0.0 | 0.0 | 0.00 | 0.43 | 0.43 | 99 | 1001.6 |
| 20260507093312 | 6 | 343 | 0.0 | 0.0 | 0.00 | 0.43 | 0.43 | 99 | 1001.5 |
| 20260507092810 | 6 | 331 | 0.0 | 0.0 | 0.00 | 0.43 | 0.43 | 99 | 1001.7 |
| 20260507092307 | 6 | 326 | 0.0 | 0.0 | 0.00 | 0.43 | 0.43 | 99 | 1001.8 |
| 20260507091802 | 6 | 278 | 3.2 | 3.2 | 0.00 | 0.43 | 0.43 | 99 | 1001.5 |